Estación de San Nicolás

Ultimos registro cada 15 minutos 50
Estación Fecha / Hora Temperatura Humedad Lluvia Velocidad Dirección Radiación Presion
50 San Nicolás 10-05-2026 12:15 15,9 62 0 2,2 276 578 1014
49 San Nicolás 10-05-2026 12:00 15,4 63 0 3,1 225 571 1014,1
48 San Nicolás 10-05-2026 11:45 15 64 0 3,1 236 559 1014,1
47 San Nicolás 10-05-2026 11:30 14,7 65 0 2,2 224 545 1014,3
46 San Nicolás 10-05-2026 11:15 14,2 66 0 1,3 248 524 1014,6
45 San Nicolás 10-05-2026 11:00 13,7 66 0 2,2 240 504 1014,8
44 San Nicolás 10-05-2026 10:45 13,1 67 0 3,6 260 478 1014,8
43 San Nicolás 10-05-2026 10:30 12,3 69 0 2,2 261 448 1014,7
42 San Nicolás 10-05-2026 10:15 11,3 74 0 4 221 413 1015
41 San Nicolás 10-05-2026 10:00 10,6 74 0 2,7 256 381 1015,2
40 San Nicolás 10-05-2026 09:45 10 77 0 1,8 263 341 1015,2
39 San Nicolás 10-05-2026 09:30 9,3 77 0 1,3 246 302 1015,4
38 San Nicolás 10-05-2026 09:15 8,8 79 0 1,8 251 260 1015,5
37 San Nicolás 10-05-2026 09:00 8,3 81 0 1,3 233 216 1015,3
36 San Nicolás 10-05-2026 08:45 7,7 84 0 0,4 266 169 1015,3
35 San Nicolás 10-05-2026 08:30 6,9 86 0 0,9 268 116 1015,1
34 San Nicolás 10-05-2026 08:15 6,3 86 0 0,4 268 74 1015,2
33 San Nicolás 10-05-2026 08:00 5,9 87 0 0,4 267 39 1014,9
32 San Nicolás 10-05-2026 07:45 5,3 88 0 0 269 12 1014,5
31 San Nicolás 10-05-2026 07:30 4,8 88 0 0 269 0 1014,6
30 San Nicolás 10-05-2026 07:15 5 87 0 0 269 0 1014,5
29 San Nicolás 10-05-2026 07:00 5 88 0 0 269 0 1014,5
28 San Nicolás 10-05-2026 06:45 5 87 0 0,4 269 0 1014,4
27 San Nicolás 10-05-2026 06:30 5 88 0 0,9 269 0 1014,4
26 San Nicolás 10-05-2026 06:15 4,6 89 0 0,9 266 0 1014,2
25 San Nicolás 10-05-2026 06:00 4,3 89 0 0 267 0 1014,2
24 San Nicolás 10-05-2026 05:45 4,3 89 0 0 267 0 1014,5
23 San Nicolás 10-05-2026 05:30 4,5 88 0 0 267 0 1014,3
22 San Nicolás 10-05-2026 05:15 4,6 88 0 0 267 0 1014,3
21 San Nicolás 10-05-2026 05:00 4,8 87 0 0 267 0 1014
20 San Nicolás 10-05-2026 04:45 5 87 0 0 267 0 1014,3
19 San Nicolás 10-05-2026 04:30 5 88 0 0 267 0 1014,4
18 San Nicolás 10-05-2026 04:15 4,7 87 0 0 267 0 1014,4
17 San Nicolás 10-05-2026 04:00 4,9 87 0 0,4 267 0 1014,4
16 San Nicolás 10-05-2026 03:45 4,9 87 0 0 267 0 1014,5
15 San Nicolás 10-05-2026 03:30 4,9 87 0 0 267 0 1014,7
14 San Nicolás 10-05-2026 03:15 5,1 86 0 0,4 267 0 1014,9
13 San Nicolás 10-05-2026 03:00 5,6 85 0 0,9 267 0 1015
12 San Nicolás 10-05-2026 02:45 6,1 84 0 0 267 0 1015
11 San Nicolás 10-05-2026 02:30 6,7 83 0 0 267 0 1015,2
10 San Nicolás 10-05-2026 02:15 7 84 0 0,9 267 0 1015,2
9 San Nicolás 10-05-2026 02:00 6,9 85 0 2,2 276 0 1015,4
8 San Nicolás 10-05-2026 01:45 6,7 85 0 0,4 281 0 1015,4
7 San Nicolás 10-05-2026 01:30 6,7 84 0 0,9 268 0 1015,6
6 San Nicolás 10-05-2026 01:15 7,1 82 0 0,4 285 0 1015,9
5 San Nicolás 10-05-2026 01:00 7,5 82 0 1,3 288 0 1016,1
4 San Nicolás 10-05-2026 00:45 8,2 80 0 1,3 268 0 1016,2
3 San Nicolás 10-05-2026 00:30 8,3 80 0 1,8 247 0 1016,3
2 San Nicolás 10-05-2026 00:15 8,4 80 0 0,9 261 0 1016,3
1 San Nicolás 10-05-2026 00:00 8,5 79 0 1,3 231 0 1016,4